Probability
17 16 14 11 9 8 9 10 10 10 8 7 7 7 6 6 6 4 2 1 3 7 8 7 10 12 10 8 9 13 15 13 11 11 9 9 10 9 7 5 5 5 4
17 15 12 10 9 8 7 7 8 8 7 6 6 6 5 5 5 4 3 1 2 5 8 9 11 12 11 11 11 13 13 12 12 12 10 9 9 10 9 7 6 6 5
15 13 9 7 7 7 6 5 5 5 5 4 4 4 4 3 3 3 3 2 1 2 5 8 10 11 11 12 13 12 10 10 11 11 10 9 9 12 13 11 8 6 6
12 10 7 6 6 7 7 6 5 4 3 3 3 2 1 1 1 1 2 2 1 1 2 4 6 7 8 9 11 10 8 8 9 9 8 8 9 12 14 12 9 7 6
10 6 5 5 6 7 8 7 6 5 4 4 3 2 0 0 0 0 1 1 0 1 2 2 2 3 4 6 8 7 6 8 10 9 6 5 6 9 11 11 9 7 4
5 4 3 4 6 7 7 7 7 6 5 4 2 1 0 0 1 1 0 0 0 1 2 2 1 1 2 4 6 6 5 6 9 8 5 3 4 7 9 10 10 7 4
4 4 4 5 6 6 6 6 6 5 3 2 1 0 0 0 1 1 0 0 0 1 2 1 1 0 1 3 4 4 4 5 6 7 6 5 5 7 8 8 9 7 5
4 4 5 5 6 5 4 4 4 3 1 0 0 0 0 0 1 1 0 0 0 1 1 2 1 1 1 1 1 2 3 4 4 5 6 6 7 7 7 7 8 8 7
4 4 5 5 4 3 3 2 2 1 0 0 0 0 0 0 0 0 0 0 0 0 1 2 2 1 0 1 0 0 1 2 2 3 5 6 7 8 8 7 8 8 7
3 3 4 4 2 1 1 1 1 0 0 0 0 0 0 0 0 0 0 0 0 0 0 1 1 0 1 2 1 0 0 0 1 2 4 6 6 8 8 8 9 9 8
2 3 4 3 2 1 0 0 0 0 0 0 0 0 0 0 0 0 0 0 0 0 0 0 0 1 2 3 2 1 0 0 0 1 2 5 6 7 7 9 11 11 9
3 3 3 3 3 2 1 1 0 0 0 0 0 0 0 0 0 0 0 0 0 0 0 0 0 1 2 3 2 1 0 0 0 0 1 3 5 5 5 8 12 12 10
4 3 3 3 3 3 2 1 0 0 0 0 0 0 0 0 0 0 0 0 0 0 0 0 0 0 1 2 2 1 0 0 0 0 0 1 2 2 3 5 9 10 9
4 3 2 2 3 3 3 1 0 0 0 0 0 0 0 0 0 0 0 0 0 0 0 0 0 0 0 1 1 0 0 0 0 0 0 0 0 0 1 2 5 6 5
3 3 2 2 2 3 2 1 0 0 0 0 0 0 0 0 0 0 0 0 0 0 0 0 0 0 0 0 0 0 0 0 0 0 0 0 0 0 0 0 1 1 1
2 3 3 3 2 2 2 1 0 0 0 0 0 0 0 0 0 0 0 0 0 0 0 0 0 0 0 0 0 0 0 0 0 0 0 0 0 0 0 0 0 0 0
1 2 4 4 3 1 1 0 0 0 0 0 0 0 0 0 0 0 0 0 0 0 0 0 0 0 0 0 0 0 0 0 0 0 0 0 0 0 0 0 0 0 0
1 2 3 4 3 1 0 0 0 0 0 0 0 0 0 0 0 0 0 0 0 0 0 0 0 0 0 0 0 0 0 0 0 0 0 0 0 0 0 0 0 0 0
0 1 3 3 3 1 0 0 0 0 0 0 0 0 0 0 0 0 0 0 0 0 0 0 0 0 0 0 0 0 0 0 0 0 0 0 0 0 0 0 0 0 0
0 1 2 3 2 1 0 0 0 0 0 0 0 0 0 0 0 0 0 0 0 0 0 0 0 0 0 0 0 0 0 0 0 0 0 0 0 0 0 0 0 0 0
0 0 1 2 2 1 0 0 0 0 0 0 0 0 0 0 0 0 0 0 0 0 0 0 0 0 0 0 0 0 0 0 0 0 0 0 0 0 0 0 0 0 0
0 0 0 1 1 0 0 0 0 0 0 0 0 0 0 0 0 0 0 0 0 0 0 0 0 0 0 0 0 0 0 0 0 0 0 0 0 0 0 0 0 0 0
0 0 0 0 0 0 0 0 0 0 0 0 0 0 0 0 0 0 0 0 0 0 0 0 0 0 0 0 0 0 0 0 0 0 0 0 0 0 0 0 0 0 0
0 0 0 0 0 0 0 0 0 0 0 0 0 0 0 0 0 0 0 0 0 0 0 0 0 0 0 0 0 0 0 0 0 0 0 0 0 0 0 0 0 0 0
0 0 0 0 0 0 0 0 0 0 0 0 0 0 0 0 0 0 0 0 0 0 0 0 0 0 0 0 0 0 0 0 0 0 0 0 0 0 0 0 0 0 0
0 0 0 0 0 0 0 0 0 0 0 0 0 0 0 0 0 0 0 0 0 0 0 0 0 0 0 0 0 0 0 0 0 0 0 0 0 0 0 0 0 0 0
Wind_Speed
2 2 1 1 2 1 1 2 2 2 3 3 3 4 5 5 4 4 3 8 9 10 10 10 10 11 12 13 13 12 12 13 14 14 15 15 14 14 14 14 15 15 16
2 2 2 1 1 1 1 2 2 2 2 2 3 3 4 4 4 4 4 5 9 9 9 9 9 9 10 12 12 12 11 12 13 14 14 14 15 15 14 14 15 15 16
2 2 1 1 2 1 1 1 2 1 2 2 3 3 3 3 3 4 4 3 4 6 7 7 7 8 9 10 11 12 12 11 12 13 14 14 14 15 15 15 15 15 16
2 2 1 2 1 1 1 1 1 2 2 2 2 3 2 2 4 3 3 3 2 3 5 6 6 6 8 9 10 11 12 12 12 12 12 13 14 14 15 15 15 15 15
2 2 2 2 1 1 1 1 1 1 2 2 3 3 2 2 3 3 3 3 3 3 3 4 6 7 8 9 9 10 10 10 11 11 12 13 13 13 14 15 14 14 15
1 1 1 2 1 1 1 1 2 2 2 2 3 3 2 2 2 2 3 3 3 3 3 3 3 5 7 8 8 9 9 10 10 11 12 13 13 13 13 13 14 15 15
2 1 1 1 1 1 1 1 1 2 1 1 1 2 2 2 2 2 2 2 3 3 3 3 3 3 3 6 7 8 9 10 10 11 12 13 13 13 13 13 13 14 15
1 2 2 1 1 1 1 1 0 1 1 0 0 0 2 3 2 2 2 2 3 2 3 3 3 3 3 3 5 8 8 9 11 12 12 13 13 14 14 14 14 14 14
2 2 2 2 1 1 1 1 1 1 1 1 1 1 1 2 2 2 2 2 2 2 3 3 4 4 4 4 4 7 9 9 11 12 12 12 12 13 15 15 15 15 14
2 2 1 2 1 1 2 2 1 1 1 1 1 1 2 2 2 2 2 2 2 3 3 3 4 4 4 4 5 7 9 9 11 12 12 11 12 13 14 15 15 15 15
2 2 1 1 1 1 2 2 1 1 2 2 2 1 1 1 2 2 4 3 3 3 3 4 4 4 4 4 4 7 9 9 10 11 11 11 12 12 13 14 15 15 16
2 2 1 1 2 2 2 2 2 2 2 2 2 2 2 2 2 3 3 3 4 3 3 3 4 4 4 4 6 8 8 8 9 10 10 11 11 12 13 13 14 15 15
2 3 2 2 2 2 2 2 2 2 2 2 3 2 2 3 2 2 3 3 3 3 3 3 3 3 4 3 4 8 8 9 9 10 10 11 11 12 12 12 13 13 13
3 3 2 2 2 2 2 1 1 2 2 2 3 3 2 3 2 3 3 2 3 3 3 4 2 3 3 3 5 7 6 9 9 9 10 11 11 11 11 11 11 11 12
2 2 2 2 2 2 1 1 1 1 1 2 2 3 2 2 2 3 3 3 3 3 4 3 2 3 3 3 5 4 5 7 8 8 9 10 10 10 11 10 10 11 11
2 2 2 2 2 1 1 1 1 1 1 2 2 2 2 2 2 2 2 2 3 3 4 3 3 3 4 4 4 4 5 7 8 7 8 8 9 9 10 10 11 11 11
2 2 2 1 2 2 2 1 2 2 2 2 2 2 3 3 2 2 2 2 2 3 4 4 3 3 3 4 4 4 4 4 4 6 7 7 8 8 9 9 10 10 11
2 2 1 1 2 2 2 2 3 2 2 3 3 3 3 2 2 2 2 2 3 3 3 5 4 3 4 4 4 5 4 3 4 5 6 6 6 7 7 8 8 9 9
2 2 1 1 2 2 2 2 2 2 2 2 3 3 3 3 3 2 2 3 2 3 3 4 4 3 3 3 3 4 4 3 4 4 5 5 6 7 7 7 8 9 9
2 2 2 2 2 2 2 2 2 2 2 3 2 3 3 3 4 3 3 3 3 3 3 3 4 4 3 3 2 3 3 3 3 3 3 4 4 6 7 7 8 9 9
2 2 2 2 2 2 2 2 2 2 2 3 3 3 3 4 4 3 3 3 3 3 3 3 4 4 4 3 3 3 3 4 4 2 2 3 3 3 4 6 7 9 9
2 2 2 2 3 3 4 4 2 2 2 3 3 4 4 4 5 5 5 5 4 4 4 4 4 5 5 5 4 4 3 3 3 2 2 4 3 4 4 4 6 8 9
2 2 2 2 3 4 5 5 4 2 2 2 3 4 4 4 4 4 6 7 6 6 6 5 6 6 6 5 4 5 4 4 4 3 2 4 3 4 4 4 7 8 9
2 2 3 3 3 5 6 5 5 2 2 3 3 4 4 5 5 5 5 6 6 5 5 5 6 7 6 5 5 5 5 5 5 4 3 4 3 4 4 4 6 7 8
2 2 3 3 3 5 6 5 4 2 2 4 4 3 4 5 7 6 4 5 6 6 5 6 6 7 7 6 4 3 3 2 3 3 2 3 3 3 3 4 4 6 7
2 3 3 3 3 4 6 5 3 1 2 4 4 4 4 5 7 6 4 4 6 6 6 7 5 5 4 4 4 4 3 3 3 3 2 2 2 2 3 2 3 3 4
Wind_Direction
224 233 243 252 263 266 259 264 260 264 262 266 258 251 248 246 243 238 245 252 251 249 247 241 235 235 233 230 228 225 223 225 225 223 222 221 220 220 219 217 214 213 211
215 223 240 248 262 263 261 255 259 260 259 261 266 261 255 251 242 239 237 251 257 254 250 244 240 237 235 232 229 225 220 221 224 225 223 222 222 222 221 221 219 216 213
217 215 232 257 262 258 256 256 267 267 263 268 272 268 260 257 247 242 239 237 248 253 249 245 242 242 239 236 231 228 224 222 225 226 225 223 224 223 222 222 223 221 218
219 208 223 244 250 242 236 245 255 268 273 278 276 274 269 261 252 246 238 230 233 248 254 250 243 241 241 237 230 229 230 228 228 229 230 228 226 225 222 221 223 223 221
229 215 226 234 221 214 245 263 260 251 266 277 276 269 267 259 252 250 246 239 235 240 250 260 256 253 250 244 238 231 234 235 235 233 233 235 233 229 227 223 222 224 225
229 221 249 248 215 209 251 261 264 260 251 269 282 290 279 264 248 247 248 247 242 240 242 250 257 260 251 248 244 239 241 243 242 240 238 237 236 232 229 226 223 224 227
234 218 234 251 235 228 246 253 257 283 279 292 311 312 300 277 264 256 253 243 244 246 242 241 241 248 255 254 250 247 246 246 242 241 240 239 236 232 230 228 228 227 227
243 226 212 218 219 238 270 260 239 245 274 297 163 298 314 314 301 277 266 248 253 252 248 243 240 243 251 251 254 252 251 252 248 245 243 240 238 234 233 230 229 230 229
248 240 222 214 219 204 235 244 227 206 243 259 198 183 206 252 294 293 275 268 267 260 258 253 246 247 246 244 250 254 252 251 251 250 248 243 241 240 237 235 233 232 230
257 245 220 205 206 214 244 249 221 207 199 250 260 231 226 214 236 291 295 285 281 271 269 267 260 254 248 244 245 251 256 253 253 255 254 248 243 240 238 237 234 235 235
276 267 238 212 213 225 240 250 239 215 200 217 229 226 226 239 227 238 278 295 298 276 270 269 264 258 252 248 248 252 256 256 256 257 257 254 248 245 242 238 237 236 236
286 282 259 229 230 236 238 240 232 224 223 222 230 220 212 218 225 226 252 279 290 289 281 268 259 257 255 248 250 257 257 257 256 257 258 256 252 248 247 243 241 240 237
284 273 267 253 248 246 246 241 234 240 231 234 238 236 232 236 224 226 244 268 284 292 283 268 257 257 261 258 258 264 258 256 256 256 255 255 253 250 249 246 243 241 240
264 269 271 266 265 258 262 255 251 253 241 243 250 243 243 247 230 225 221 231 273 281 274 270 272 258 265 266 267 267 263 257 257 255 253 252 249 247 246 246 240 237 235
271 272 271 277 281 274 260 235 245 264 265 254 254 252 251 257 247 244 236 223 231 269 278 267 262 267 266 267 276 273 267 267 264 260 255 250 245 243 242 240 236 233 230
283 286 285 285 302 305 292 264 257 263 263 273 259 265 272 264 258 249 245 240 230 240 262 260 251 270 279 280 279 273 269 277 271 268 262 255 248 244 242 241 238 235 230
290 285 273 273 284 286 279 270 276 274 271 283 288 279 281 275 275 273 259 247 242 234 257 274 258 271 271 278 289 283 275 270 275 272 267 260 251 247 244 240 237 234 231
304 295 278 279 286 282 275 268 277 278 273 285 293 292 291 293 285 279 270 262 252 237 241 269 275 271 262 275 286 287 285 282 277 276 266 260 250 246 243 239 234 231 231
315 318 315 293 294 294 291 290 280 284 285 281 291 291 290 294 291 287 280 274 267 259 241 253 272 270 270 278 292 293 290 285 285 278 264 257 252 247 244 242 236 231 229
306 302 300 293 283 285 289 294 289 285 289 292 293 292 291 277 268 274 277 274 268 267 262 262 272 273 268 275 272 279 294 296 295 292 282 274 264 256 249 243 239 234 229
304 296 315 316 306 292 283 288 285 283 290 303 311 309 300 294 282 269 271 272 271 267 271 272 274 272 274 274 269 260 271 288 287 269 281 279 273 270 263 248 240 236 232
320 326 330 322 317 308 306 303 293 288 299 301 309 313 309 304 302 297 290 284 271 261 265 264 269 271 271 267 264 261 265 279 284 262 263 279 267 268 266 255 241 238 235
320 319 313 318 313 312 322 322 319 298 292 292 293 300 305 312 315 307 301 299 289 276 256 250 260 264 266 260 260 265 257 254 262 266 254 271 266 268 268 259 243 241 240
317 310 309 314 316 317 327 328 323 316 304 299 295 292 297 306 309 310 308 307 300 292 278 264 258 263 265 264 252 254 260 263 268 262 234 256 270 271 278 270 251 244 242
322 318 314 321 323 318 328 331 335 326 310 310 312 313 303 302 308 317 312 308 310 308 297 287 276 273 273 271 257 247 250 251 273 275 229 239 269 277 276 267 257 243 243
308 320 323 320 313 311 323 330 336 312 312 315 322 322 317 314 317 323 312 306 308 310 319 322 315 306 292 284 258 230 233 241 263 271 227 225 259 274 280 264 266 264 250